Regional Weather Roundup
Issued by NWS

Home | Current Version | Previous Version | Text Only | Print | Product List | Glossary On
Versions: 1 2 3 4 5 6 7 8 9 10 11 12 13 14 15 16 17 18 19 20 21 22 23 24 25 26 27 28 29 30 31 32 33 34 35 36 37 38 39 40 41 42 43 44 45 46 47 48 49 50
000
ASUS46 KSTO 310609
RWRCA

NORTHERN AND CENTRAL CA REGIONAL WEATHER ROUNDUP
NATIONAL WEATHER SERVICE SACRAMENTO CA
1100 PM PDT SAT JUL 30 2016

NOTE: FAIR INDICATES FEW OR NO CLOUDS BELOW 12,000 FEET WITH NO
SIGNIFICANT WEATHER AND/OR OBSTRUCTIONS TO VISIBILITY.

CAZ001-003-310700-
NORTHWEST AREA

CITY           SKY/WX    TMP DP  RH WIND       PRES   REMARKS
CRESCENT CITY  CLEAR     58  51  78 SE10      29.86R
ARCATA         NOT AVBL
SHELTER COVE   NOT AVBL
UKIAH          CLEAR     70  49  47 S8        29.80S
$$

CAZ006-505>513-310700-
BAY AREA

CITY           SKY/WX    TMP DP  RH WIND       PRES   REMARKS
SANTA ROSA     CLOUDY    55  53  93 SE6       29.84S
SAN RAFAEL     N/A       74  MM  MM MISG
NAPA           CLEAR     58  53  84 SW6       29.83R
CONCORD        CLEAR     62  50  64 NW7       29.81R
OAKLAND CITY   N/A       57  MM  MM MISG
OAKLAND        MOCLDY    58  55  90 NW13      29.85S
SAN FRAN CITY  N/A       55  MM  99 MISG
SAN FRAN ARPT  PTCLDY    57  53  86 NW13      29.85R
LIVERMORE      CLEAR     69  52  54 NW8       29.80S
HAYWARD        CLEAR     59  51  75 N7        29.85R
REDWOOD CITY   N/A       MM  MM  MM MISG
MOFFETT ARPT   PTCLDY    61  56  83 N7        29.85S
SAN JOSE ARPT  CLEAR     63  57  81 NW6       29.84S
$$
CAZ034-037-514>518-310700-
CENTRAL COAST

CITY           SKY/WX    TMP DP  RH WIND       PRES   REMARKS
WATSONVILLE    CLOUDY    57  55  93 CALM      29.88S
SALINAS        CLOUDY    58  54  86 CALM      29.88R
MONTEREY       NOT AVBL
PT PIEDRAS BLS NOT AVBL
SAN LUIS OBISP CLEAR     61  57  87 NW3       29.87R
SANTA MARIA    CLOUDY    58  58 100 CALM      29.87F FOG
$$
CAZ015-016-310700-
NORTHERN SACRAMENTO VALLEY

CITY           SKY/WX    TMP DP  RH WIND       PRES   REMARKS
REDDING        CLEAR     91  45  20 SW8       29.72S
RED BLUFF      CLEAR     85  46  25 S9        29.73R
OROVILLE       CLEAR     84  41  21 SE15      29.74S
$$
CAZ016>018-310700-
SOUTHERN SACRAMENTO VALLEY

CITY           SKY/WX    TMP DP  RH WIND       PRES   REMARKS
LINCOLN        FAIR      79  43  27 SE13G18   29.75R
MARYSVILLE     CLEAR     78  50  37 SE14      29.74R
SAC INTL ARPT  CLEAR     73  52  47 S12       29.74R
MATHER AIRPORT NOT AVBL
DOWNTOWN SAC   N/A       76  MM  MM MISG
SAC EXEC ARPT  CLEAR     73  50  44 S8        29.76R
VACAVILLE      CLEAR     77  46  33 S8        29.75S
TRAVIS AFB     CLEAR     65  53  66 SW20      29.75S
$$
CAZ019>021-310700-
SAN JOAQUIN VALLEY

CITY           SKY/WX    TMP DP  RH WIND       PRES   REMARKS
STOCKTON       CLEAR     74  52  46 NW9       29.77R
MODESTO        CLEAR     80  49  33 N5        29.76R
MERCED         CLEAR     76  56  49 W5        29.76R
LEMOORE        CLEAR     83  38  20 W10       29.76R
FRESNO         CLEAR     86  52  30 W12       29.75R
HANFORD        CLEAR     86  42  21 NW13      29.75R
PORTERVILLE    CLEAR     83  49  30 S8        29.77S
BAKERSFIELD    CLEAR     89  47  23 NW7       29.78R
$$
CAZ011-012-071-310700-
NORTHERN MOUNTAINS

CITY           SKY/WX    TMP DP  RH WIND       PRES   REMARKS
YREKA          CLEAR     77  38  24 N15       29.91R
MOUNT SHASTA   CLEAR     68  47  46 CALM      29.96R
ALTURAS        CLEAR     76  39  26 W7        30.00R
$$
CAZ011-012-071-310700-
SIERRA NEVADA MTNS

CITY           SKY/WX    TMP DP  RH WIND       PRES   REMARKS
BLUE CANYON    CLEAR     72  38  29 E3        30.13S
TRUCKEE        CLEAR     57  41  54 CALM      30.17S
TAHOE VLY ARPT CLEAR     61  43  51 S3        30.19S
MAMMOTH LAKES    N/A     70  40  33 NW5       30.24S
$$



USA.gov is the U.S. government's official web portal to all federal, state and local government web resources and services.